Starlink 3391

operational
NORAD ID: 51117 Int'l Des: 2022-005 Owner: SPXS Country: US Constellation: starlink
LEOCIRCULAR

About Starlink 3391

Description loading...

Live Position

Loading 3D Globe...

Upcoming Passes

Altitude History

Altitude vs Time

uPlot chart will show altitude changes over time

Two-Line Element Set

1 51117U 22005P 26064.08429975 .00003090 00000-0 21202-3 0 9998
2 51117 53.2213 309.6849 0001164 284.0155 76.0708 15.08863786228180
Epoch: Mar 5, 2026 • Age: 27 hours

Current Status

Altitude 550.0 km
Velocity 7.59 km/s
Sub-Earth Point -34.81°S, 61.08°E
Launch Date Jan 19, 2022
Age 4.1 years
Type internet

Technical Details

Classification Payload
Mass 297.00 kg
Dry Mass 275.00 kg
Total Mass 297.00 kg
Length 0.20 m
Diameter 2.80 m
Span 9.00 m
Shape Box + pan
Manufacturer SPXS
Bus Type Starlink
Phase Status In Orbit
Owner/State SPXS/US

Large Constellations

Loading constellations...